Location: Newark
(34.4697°S, 57.8467°W)
Time: 19:39:53
(UTC+00:00)

N. Korean satellite - Pass Details

Date: 20 July 2019
Orbit: 457 x 507 km, 97.2° (Epoch: 16 August)

Event Time Altitude Azimuth Distance (km) Brightness Sun altitude
Rises 09:33:13 0° 356° (N) 2,596 10.4 -16.4°
Reaches altitude 10° 09:35:23 10° 348° (NNW) 1,717 9.4 -16.0°
Maximum altitude 09:38:52 39° 278° (W) 779 7.1 -15.3°
Enters shadow 09:40:34 24° 226° (SW) 1,081 7.8 -14.9°
